Location: Arnolds Mill
(42.3415°N, 73.5951°W)
Time: 10:28:08
(UTC+00:00)

BlueWalker 3 - Pass Details

Date: 24 June 2024
Orbit: 480 x 492 km, 53.2° (Epoch: 13 July)

Event Time Altitude Azimuth Distance (km) Brightness Sun altitude
Rises 06:54:21 0° 304° (NW) 2,539 5.6 -18.9°
Reaches altitude 10° 06:56:32 10° 300° (WNW) 1,656 4.6 -18.7°
Maximum altitude 07:00:12 55° 222° (SW) 581 1.8 -18.4°
Enters shadow 07:00:31 53° 199° (SSW) 597 1.9 -18.3°
